Juneau, WI

10:35 PM CDT on August 31, 2016 (GMT -0500)
Dodge County

Weather History for KUNU - March, 2012

Change the Weather History Date:

Saturday, March 10, 2012

  Actual Average Record
Temperature  
Mean Temperature 42 °F -  
Max Temperature 57 °F 33 °F 63 °F (1977)
Min Temperature 28 °F 20 °F -4 °F (1972)
Degree Days  
Heating Degree Days 22    
Moisture  
Dew Point 22 °F    
Average Humidity 48    
Maximum Humidity 64    
Minimum Humidity 29    
Precipitation  
Precipitation 0.00 in - - ()
Sea Level Pressure  
Sea Level Pressure 30.21 in    
Wind  
Wind Speed 18 mph (South)    
Max Wind Speed 32 mph    
Max Gust Speed 39 mph    
Visibility 10 miles    
Events      
Averages and records for this station are not official NWS values.
T = Trace of Precipitation, MM = Missing Value Source: NWS Daily Summary

Daily Weather History Graph

Daily Weather History Graph

Search for Another Location

Airport or City:

Trip Planner

Search our weather history database for the weather conditions in past years. The results will help you decide how hot, cold, wet, or windy it might be!

Date:

Astronomy

Mar. 10, 2012 Rise Set
Actual Time 6:14 AM CST 5:55 PM CST
Civil Twilight 5:46 AM CST 6:24 PM CST
Nautical Twilight 5:13 AM CST 6:57 PM CST
Astronomical Twilight 4:39 AM CST 7:30 PM CST
Moon 9:15 PM CST (3/10) 7:03 AM CST (3/10)
Length of Visible Light 12h 37m
Length of Day
11h 40m
Waning Gibbous, 92% of the Moon is Illuminated
Mar 10
Waning Gibbous
Mar 14
Last Quarter
Mar 22
New
Mar 30
First Quarter
Apr 6
Full

Hourly Weather History & Observations

Time (CST) Temp. Windchill Dew Point Humidity Pressure Visibility Wind Dir Wind Speed Gust Speed Precip Events Conditions
12:15 AM 28.4 °F 18.0 °F 14.0 °F 55% 30.44 in 10.0 mi SE 12.7 mph - N/A   Clear
12:35 AM 28.4 °F 17.5 °F 14.0 °F 55% 30.44 in 10.0 mi SE 13.8 mph - N/A   Scattered Clouds
12:55 AM 28.4 °F 18.0 °F 15.8 °F 59% 30.43 in 10.0 mi SE 12.7 mph - N/A   Scattered Clouds
1:15 AM 30.2 °F 20.2 °F 17.6 °F 60% 30.42 in 10.0 mi SE 12.7 mph 18.4 mph N/A   Mostly Cloudy
1:55 AM 30.2 °F 18.9 °F 17.6 °F 60% 30.40 in 10.0 mi SSE 16.1 mph - N/A   Clear
2:15 AM 30.2 °F 20.2 °F 17.6 °F 60% 30.39 in 10.0 mi SSE 12.7 mph - N/A   Clear
2:35 AM 30.2 °F 19.3 °F 17.6 °F 60% 30.39 in 10.0 mi SSE 15.0 mph - N/A   Clear
2:55 AM 30.2 °F 19.8 °F 17.6 °F 60% 30.37 in 10.0 mi SSE 13.8 mph - N/A   Clear
3:15 AM 30.2 °F 18.9 °F 17.6 °F 60% 30.36 in 10.0 mi SSE 16.1 mph - N/A   Clear
3:35 AM 30.2 °F 18.5 °F 17.6 °F 60% 30.35 in 10.0 mi SSE 17.3 mph 20.7 mph N/A   Clear
3:55 AM 28.4 °F 15.8 °F 17.6 °F 64% 30.34 in 10.0 mi SSE 18.4 mph - N/A   Clear
4:15 AM 28.4 °F 15.8 °F 17.6 °F 64% 30.33 in 10.0 mi SSE 18.4 mph - N/A   Clear
4:35 AM 28.4 °F 17.0 °F 17.6 °F 64% 30.32 in 10.0 mi SSE 15.0 mph - N/A   Clear
4:55 AM 28.4 °F 16.6 °F 17.6 °F 64% 30.32 in 10.0 mi SSE 16.1 mph 23.0 mph N/A   Clear
5:15 AM 28.4 °F 16.2 °F 17.6 °F 64% 30.32 in 10.0 mi SSE 17.3 mph - N/A   Clear
5:35 AM 28.4 °F 15.8 °F 17.6 °F 64% 30.32 in 10.0 mi SSE 18.4 mph - N/A   Clear
6:15 AM 28.4 °F 15.8 °F 17.6 °F 64% 30.29 in 10.0 mi South 18.4 mph 24.2 mph N/A   Clear
6:35 AM 28.4 °F 15.4 °F 15.8 °F 59% 30.29 in 10.0 mi South 19.6 mph 27.6 mph N/A   Clear
6:55 AM 30.2 °F 17.4 °F 15.8 °F 55% 30.28 in 10.0 mi South 20.7 mph 26.5 mph N/A   Clear
7:15 AM 30.2 °F 16.8 °F 15.8 °F 55% 30.28 in 10.0 mi South 23.0 mph 29.9 mph N/A   Clear
7:35 AM 32.0 °F 19.8 °F 15.8 °F 51% 30.28 in 10.0 mi South 20.7 mph 31.1 mph N/A   Clear
7:55 AM 32.0 °F 18.9 °F 15.8 °F 51% 30.27 in 10.0 mi South 24.2 mph 31.1 mph N/A   Clear
8:15 AM 32.0 °F 18.9 °F 17.6 °F 55% 30.26 in 10.0 mi South 24.2 mph 31.1 mph N/A   Clear
8:35 AM 33.8 °F 21.3 °F 17.6 °F 52% 30.26 in 10.0 mi South 24.2 mph 28.8 mph N/A   Clear
8:55 AM 35.6 °F 24.8 °F 17.6 °F 48% 30.24 in 10.0 mi South 19.6 mph 28.8 mph N/A   Clear
9:15 AM 37.4 °F 26.4 °F 19.4 °F 48% 30.23 in 10.0 mi SSW 23.0 mph 31.1 mph N/A   Clear
9:35 AM 37.4 °F 26.1 °F 19.4 °F 48% 30.22 in 10.0 mi SSW 24.2 mph 32.2 mph N/A   Clear
9:55 AM 39.2 °F 28.5 °F 19.4 °F 45% 30.22 in 10.0 mi SSW 24.2 mph 33.4 mph N/A   Clear
10:15 AM 41.0 °F 30.5 °F 21.2 °F 45% 30.20 in 10.0 mi SSW 26.5 mph 36.8 mph N/A   Clear
10:35 AM 42.8 °F 33.1 °F 21.2 °F 42% 30.19 in 10.0 mi SSW 25.3 mph 31.1 mph N/A   Clear
10:55 AM 42.8 °F 32.9 °F 23.0 °F 46% 30.18 in 10.0 mi South 26.5 mph 35.7 mph N/A   Clear
11:15 AM 44.6 °F 36.1 °F 23.0 °F 43% 30.17 in 10.0 mi SSW 21.9 mph 34.5 mph N/A   Clear
11:35 AM 46.4 °F 37.9 °F 24.8 °F 43% 30.16 in 10.0 mi SSW 25.3 mph 32.2 mph N/A   Clear
11:55 AM 48.2 °F - 24.8 °F 40% 30.16 in 10.0 mi SSW 27.6 mph 35.7 mph N/A   Clear
12:15 PM 50.0 °F - 24.8 °F 37% 30.15 in 10.0 mi SSW 26.5 mph 36.8 mph N/A   Clear
12:35 PM 51.8 °F - 26.6 °F 38% 30.13 in 10.0 mi SSW 28.8 mph 34.5 mph N/A   Clear
12:55 PM 51.8 °F - 26.6 °F 38% 30.12 in 10.0 mi SSW 29.9 mph 38.0 mph N/A   Clear
1:15 PM 53.6 °F - 26.6 °F 35% 30.12 in 10.0 mi SSW 26.5 mph 35.7 mph N/A   Clear
1:35 PM 53.6 °F - 26.6 °F 35% 30.11 in 10.0 mi SSW 25.3 mph 38.0 mph N/A   Clear
1:55 PM 55.4 °F - 26.6 °F 33% 30.11 in 10.0 mi SSW 26.5 mph 35.7 mph N/A   Clear
2:15 PM 55.4 °F - 24.8 °F 31% 30.11 in 10.0 mi SSW 32.2 mph 39.1 mph N/A   Clear
2:35 PM 55.4 °F - 26.6 °F 33% 30.11 in 10.0 mi SSW 32.2 mph 38.0 mph N/A   Clear
2:55 PM 57.2 °F - 24.8 °F 29% 30.09 in 10.0 mi SSW 28.8 mph 35.7 mph N/A   Clear
3:15 PM 55.4 °F - 26.6 °F 33% 30.09 in 10.0 mi SSW 28.8 mph 35.7 mph N/A   Clear
3:35 PM 57.2 °F - 24.8 °F 29% 30.09 in 10.0 mi SSW 23.0 mph 33.4 mph N/A   Clear
3:55 PM 55.4 °F - 26.6 °F 33% 30.09 in 10.0 mi SSW 20.7 mph 34.5 mph N/A   Clear
4:15 PM 55.4 °F - 28.4 °F 36% 30.09 in 10.0 mi SSW 18.4 mph 25.3 mph N/A   Clear
4:35 PM 55.4 °F - 28.4 °F 36% 30.09 in 10.0 mi SSW 20.7 mph 26.5 mph N/A   Clear
4:55 PM 55.4 °F - 28.4 °F 36% 30.08 in 10.0 mi SSW 16.1 mph 21.9 mph N/A   Clear
5:15 PM 53.6 °F - 28.4 °F 38% 30.08 in 10.0 mi SSW 18.4 mph 24.2 mph N/A   Clear
5:35 PM 53.6 °F - 28.4 °F 38% 30.09 in 10.0 mi SSW 19.6 mph 25.3 mph N/A   Clear
5:55 PM 51.8 °F - 28.4 °F 41% 30.08 in 10.0 mi SSW 17.3 mph - N/A   Clear
6:15 PM 50.0 °F - 28.4 °F 43% 30.09 in 10.0 mi South 13.8 mph - N/A   Clear
6:35 PM 50.0 °F - 28.4 °F 43% 30.09 in 10.0 mi South 12.7 mph - N/A   Clear
6:55 PM 50.0 °F - 28.4 °F 43% 30.09 in 10.0 mi SSW 12.7 mph - N/A   Clear
7:15 PM 48.2 °F - 30.2 °F 50% 30.10 in 10.0 mi SSW 13.8 mph - N/A   Clear
7:35 PM 48.2 °F - 28.4 °F 46% 30.11 in 10.0 mi South 12.7 mph - N/A   Clear
7:55 PM 46.4 °F 40.1 °F 28.4 °F 50% 30.11 in 10.0 mi SSW 15.0 mph - N/A   Clear
8:15 PM 46.4 °F 39.8 °F 30.2 °F 53% 30.11 in 10.0 mi SSW 16.1 mph - N/A   Clear
8:35 PM 46.4 °F 40.1 °F 28.4 °F 50% 30.11 in 10.0 mi SSW 15.0 mph - N/A   Clear
8:55 PM 46.4 °F 40.4 °F 28.4 °F 50% 30.11 in 10.0 mi SSW 13.8 mph - N/A   Clear
9:15 PM 46.4 °F 40.4 °F 28.4 °F 50% 30.12 in 10.0 mi South 13.8 mph - N/A   Clear
9:35 PM 46.4 °F 40.1 °F 28.4 °F 50% 30.12 in 10.0 mi SSW 15.0 mph - N/A   Clear
9:55 PM 46.4 °F 40.4 °F 28.4 °F 50% 30.12 in 10.0 mi SSW 13.8 mph - N/A   Clear
10:15 PM 44.6 °F 37.4 °F 28.4 °F 53% 30.13 in 10.0 mi SSW 16.1 mph - N/A   Clear
10:35 PM 44.6 °F 37.4 °F 28.4 °F 53% 30.13 in 10.0 mi SSW 16.1 mph - N/A   Clear
10:55 PM 44.6 °F 37.2 °F 28.4 °F 53% 30.14 in 10.0 mi SSW 17.3 mph - N/A   Clear
11:15 PM 44.6 °F 37.4 °F 28.4 °F 53% 30.14 in 10.0 mi SSW 16.1 mph - N/A   Clear
11:35 PM 44.6 °F 37.8 °F 28.4 °F 53% 30.14 in 10.0 mi SSW 15.0 mph - N/A   Clear
11:55 PM 42.8 °F 35.4 °F 28.4 °F 57% 30.13 in 10.0 mi SSW 15.0 mph - N/A   Clear